Providence, RI

5:02 AM EDT on October 14, 2019 (GMT -0400)
Green State

Weather History for KPVD - September, 2019

Change the Weather History Date:

Monday, September 16, 2019

  Actual Average Record
Temperature  
Mean Temperature 69 °F 65 °F  
Max Temperature 76 °F 74 °F 92 °F (1941)
Min Temperature 62 °F 55 °F 41 °F (1964)
Degree Days  
Heating Degree Days 0 3  
Month to date heating degree days 13 24  
Since 1 July heating degree days 16 33  
Cooling Degree Days 4 2  
Month to date cooling degree days 48 60  
Year to date cooling degree days 833 716  
Growing Degree Days 18 (Base 50)    
Moisture  
Dew Point 54 °F    
Average Humidity 64    
Maximum Humidity 90    
Minimum Humidity 38    
Precipitation  
Precipitation 0.00 in 0.14 in 6.17 in (1932)
Month to date precipitation 0.53 2.04  
Year to date precipitation 34.84 32.64  
Snow  
Snow 0.00 in 0.00 in 0.00 in (2002)
Month to date snowfall 0.0 0.0  
Since 1 July snowfall 0.0 0.0  
Since 1 September snowfall 0.0 0.0  
Snow Depth 0.00 in    
Sea Level Pressure  
Sea Level Pressure 30.04 in    
Wind  
Wind Speed 7 mph (NW)    
Max Wind Speed 14 mph    
Max Gust Speed 22 mph    
Visibility 10 miles    
Events      
T = Trace of Precipitation, MM = Missing Value Source: NWS Daily Summary

Daily Weather History Graph

Daily Weather History Graph

Search for Another Location

Airport or City:

Astronomy

Sep. 16, 2019 Rise Set
Actual Time 6:26 AM EDT 6:53 PM EDT
Civil Twilight 5:58 AM EDT 7:21 PM EDT
Nautical Twilight 5:25 AM EDT 7:54 PM EDT
Astronomical Twilight 4:52 AM EDT 8:28 PM EDT
Moon 8:25 PM EDT (9/16) 8:32 AM EDT (9/16)
Length of Visible Light 13h 22m
Length of Day
12h 27m
Waning Gibbous, 94% of the Moon is Illuminated
Sep 16
Waning Gibbous
Sep 21
Last Quarter
Sep 28
New
Oct 5
First Quarter
Oct 13
Full

Hourly Weather History & Observations

Time (EDT) Temp. Dew Point Humidity Pressure Visibility Wind Dir Wind Speed Gust Speed Precip Events Conditions
12:51 AM 64.0 °F 59.0 °F 84% 30.04 in 10.0 mi West 3.5 mph - N/A   Overcast
1:51 AM 63.0 °F 57.9 °F 84% 30.04 in 10.0 mi Calm Calm - N/A   Scattered Clouds
2:51 AM 62.1 °F 59.0 °F 90% 30.04 in 10.0 mi WSW 4.6 mph - N/A   Overcast
3:51 AM 64.0 °F 59.0 °F 84% 30.04 in 10.0 mi West 5.8 mph - N/A   Overcast
4:51 AM 64.0 °F 59.0 °F 84% 30.04 in 10.0 mi WNW 3.5 mph - N/A   Overcast
5:51 AM 66.0 °F 57.9 °F 75% 30.06 in 10.0 mi NW 4.6 mph - N/A   Mostly Cloudy
6:51 AM 64.0 °F 57.0 °F 78% 30.06 in 10.0 mi North 6.9 mph - N/A   Mostly Cloudy
7:51 AM 64.9 °F 57.9 °F 78% 30.06 in 10.0 mi North 6.9 mph - N/A   Mostly Cloudy
8:51 AM 68.0 °F 57.0 °F 68% 30.07 in 10.0 mi North 6.9 mph - N/A   Partly Cloudy
9:51 AM 69.1 °F 55.9 °F 63% 30.06 in 10.0 mi NNW 6.9 mph - N/A   Scattered Clouds
10:51 AM 70.0 °F 55.9 °F 61% 30.06 in 10.0 mi NNW 8.1 mph - N/A   Mostly Cloudy
11:51 AM 71.1 °F 55.9 °F 59% 30.04 in 10.0 mi NNW 4.6 mph - N/A   Mostly Cloudy
12:51 PM 72.0 °F 52.0 °F 49% 30.03 in 10.0 mi WNW 8.1 mph - N/A   Scattered Clouds
1:51 PM 75.0 °F 51.1 °F 43% 30.01 in 10.0 mi NW 12.7 mph - N/A   Scattered Clouds
2:51 PM 75.0 °F 51.1 °F 43% 30.01 in 10.0 mi NNW 9.2 mph - N/A   Scattered Clouds
3:51 PM 75.0 °F 48.9 °F 40% 30.00 in 10.0 mi NW 10.4 mph - N/A   Scattered Clouds
4:51 PM 73.9 °F 50.0 °F 43% 29.99 in 10.0 mi WNW 8.1 mph - N/A   Scattered Clouds
5:51 PM 72.0 °F 48.9 °F 44% 30.00 in 10.0 mi NNW 9.2 mph - N/A   Scattered Clouds
6:51 PM 70.0 °F 48.0 °F 46% 30.01 in 10.0 mi NNW 6.9 mph - N/A   Partly Cloudy
7:51 PM 66.9 °F 50.0 °F 54% 30.03 in 10.0 mi NNW 5.8 mph - N/A   Clear
8:51 PM 64.0 °F 51.1 °F 63% 30.05 in 10.0 mi NW 6.9 mph - N/A   Clear
9:51 PM 61.0 °F 51.1 °F 70% 30.07 in 10.0 mi North 5.8 mph - N/A   Partly Cloudy
10:51 PM 60.1 °F 51.1 °F 72% 30.08 in 10.0 mi WSW 3.5 mph - N/A   Partly Cloudy
11:51 PM 57.9 °F 50.0 °F 75% 30.08 in 10.0 mi WNW 3.5 mph - N/A   Clear